Location: Limoges
(45.8500°N, 1.2500°E)
Time: 03:25:51
(UTC+02:00)

ISS - Pass Details

Date: 28 September 2021
Orbit: 417 x 423 km, 51.6° (Epoch: 21 October)

Event Time Altitude Azimuth Distance (km) Brightness Sun altitude
Rises 20:58:26 0° 294° (WNW) 2,365 1.8 -14.3°
Reaches altitude 10° 21:00:39 10° 304° (NW) 1,501 0.2 -14.7°
Maximum altitude 21:03:47 34° 12° (NNE) 709 -2.6 -15.2°
Enters shadow 21:05:03 25° 56° (NE) 892 -2.5 -15.4°
